SCP
-0 -0 -0 -0 -0 -0 -0 -0 -0 -0 -0 -0 -0 -0 -0 -0 -0 -0 -0 -0 -0 -0 -0 -0 -0 0 0 0 0 -0 0 0 0 0 0 0 0 0 0 0 0 0 0 0 0 0 0
-0 -0 -0 -0 -0 -0 -0 -0 -0 -0 -0 -0 -0 -0 -0 -0 -0 -0 -0 -0 -0 -0 -0 -0 -0 0 0 0 0 -0 -0 -0 0 0 0 0 0 0 0 0 0 0 0 0 0 0 0
-0 -0 -0 -0 -0 -0 -0 -0 -0 -0 -0 -0 -0 -0 -0 -0 -0 -0 -0 -0 -0 -0 -0 -0 0 0 0 0 0 -0 -0 0 0 0 0 0 0 0 0 0 0 0 0 -0 -0 -0 -0
-0 -0 -0 -0 -0 -0 -0 -0 -0 -0 -0 -0 -0 -0 -0 -0 -0 -0 -0 -0 -0 -0 -0 0 -0 -0 0 0 0 -0 0 0 0 0 0 0 0 0 0 0 -0 0 -0 0 0 -0 -0
-0 -0 -0 -0 -0 -0 -0 -0 -0 -0 -0 -0 -0 -0 -0 -0 -0 -0 -0 -0 -0 -0 0 0 -0 -0 0 0 -0 -0 0 0 0 0 0 0 0 0 0 -0 -0 -0 -0 -0 -0 0 -0
-0 -0 -0 -0 -0 -0 -0 -0 -0 -0 -0 -0 -0 -0 -0 -0 -0 -0 -0 -0 0 0 0 -0 0 0 -0 -0 -0 -0 0 0 -0 -0 0 0 0 0 0 -0 0 -0 -0 -0 -0 -0 0
0 0 -0 -0 -0 -0 -0 -0 -0 -0 -0 -0 -0 -0 -0 -0 -0 -0 -0 0 0 0 -0 0 0 -0 0 0 0 0 0 0 0 0 0 0 0 0 -0 -0 0 -0 0 -0 0 0 -0
0 0 0 0 0 0 -0 -0 -0 -0 -0 -0 -0 -0 -0 -0 -0 -0 0 0 0 0 0 -0 -0 0 0 0 0 -0 0 0 0 0 0 0 0 0 0 0 0 0 -0 -0 0 -0 -0
0 0 0 0 0 0 0 0 -0 -0 -0 -0 -0 -0 -0 -0 -0 0 0 0 0 0 0 0 0 -0 0 0 0 0 0 0 0 0 0 0 0 0 0 0 -0 0 -0 0 0 -0 -0
0 0 0 0 0 0 0 0 0 -0 -0 -0 -0 -0 -0 -0 0 0 0 0 0 0 0 0 0 0 0 0 0 0 0 0 0 0 0 0 0 -0 0 0 -0 0 0 0 0 -0 -0
0 0 0 0 0 0 0 0 0 0 0 -0 -0 -0 -0 -0 0 0 0 0 0 0 0 0 0 0 0 -0 -0 0 0 0 0 0 0 0 0 0 0 0 0 -0 0 0 0 -0 -0
0 0 0 0 0 0 0 0 0 0 0 0 0 0 -0 -0 0 0 0 0 0 0 0 0 0 0 0 0 0 0 0 0 0 0 0 0 0 -0 0 0 0 0 0 0 0 -0 -0
0 0 0 0 0 0 0 0 0 0 0 0 0 0 0 0 0 0 0 0 0 0 0 0 0 0 -0 0 0 0 0 0 0 0 0 0 -0 0 0 0 0 0 -0 -0 0 0 0
0 0 0 0 0 0 0 0 0 0 0 0 0 0 0 0 0 0 0 0 0 0 0 0 0 0 0 0 -0 0 0 0 0 0 0 0 0 -0 0 0 0 -0 -0 0 0 0 0
0 0 0 0 0 0 0 0 0 0 0 0 -0 0 0 0 -0 0 0 -0 -0 0 0 0 0 0 0 0 0 0 0 0 0 -0 0 0 -0 0 -0 0 -0 0 0 0 0 0 0
0 0 0 0 0 0 0 -0 0 -0 0 0 0 0 0 0 0 0 0 -0 0 0 0 0 0 -0 0 0 0 0 0 0 0 0 0 0 -0 0 0 0 0 0 0 0 0 0 0
0 0 0 0 0 0 0 0 -0 -0 -0 0 0 0 0 0 0 0 0 0 0 0 0 0 0 0 0 0 0 0 0 0 0 0 0 0 0 0 0 0 0 0 0 0 0 0 0
0 0 0 0 0 0 0 0 0 -0 -0 0 0 0 0 0 0 0 0 0 0 0 0 0 0 0 0 0 0 0 0 0 0 0 0 0 0 0 0 0 -0 0 0 0 0 0 0
0 0 0 0 0 0 0 0 0 0 0 0 0 0 0 0 0 0 0 0 0 0 0 0 0 0 0 0 0 0 0 0 0 0 0 0 0 0 0 0 0 0 0 0 0 0 0
-0 0 0 0 0 0 0 0 0 0 0 0 0 0 0 0 0 0 0 0 0 0 0 0 0 0 0 0 0 0 0 0 0 0 0 0 0 0 0 -0 0 0 0 0 0 0 0
-0 0 0 0 0 0 0 0 0 -0 0 0 0 0 0 0 0 0 0 0 0 0 0 0 0 0 0 0 0 0 0 0 0 0 0 0 0 0 0 0 0 0 0 0 0 0 0
-0 0 0 0 0 0 0 0 0 0 -0 0 0 0 0 0 0 0 0 0 0 0 0 0 0 0 0 0 0 0 0 0 0 0 0 0 0 0 0 0 0 0 0 0 0 0 0
-0 -0 -0 0 0 0 0 0 0 0 0 0 0 0 0 0 0 0 0 0 0 0 0 0 0 0 0 0 0 0 0 0 0 0 0 0 0 0 0 0 0 0 0 0 0 0 0
-0 -0 -0 -0 0 0 0 0 0 0 0 0 0 0 0 0 0 0 0 0 0 0 0 0 0 0 0 0 0 0 0 0 0 0 0 0 0 0 0 0 0 0 0 0 0 0 0
-0 -0 0 0 0 0 0 0 0 0 0 0 0 0 0 0 0 0 0 0 0 0 0 0 0 0 0 0 0 0 0 0 0 0 0 0 0 0 0 0 0 0 0 0 0 0 0
0 -0 -0 -0 0 0 0 0 0 0 0 0 0 0 0 0 0 0 0 0 0 0 0 0 0 0 0 0 0 0 0 0 0 0 0 0 0 0 0 0 0 0 0 0 0 0 0
-0 -0 -0 -0 -0 -0 -0 0 0 0 0 0 0 0 0 0 0 0 0 0 0 0 0 0 0 0 0 0 0 0 0 0 0 0 0 0 0 0 0 0 0 0 0 0 0 0 0
0 -0 -0 -0 -0 -0 -0 -0 0 0 0 0 0 0 0 0 0 0 0 0 0 0 0 0 0 0 0 0 0 0 0 0 0 0 0 0 0 0 0 0 0 0 0 0 1 0 0
0 0 0 0 0 0 0 -0 -0 0 0 0 0 0 0 0 0 0 0 0 0 0 0 0 0 0 0 0 0 0 0 0 0 0 0 0 0 0 0 0 0 0 0 0 0 0 0
Wind_Speed_500mb
17 17 18 19 20 19 17 18 19 20 21 23 25 26 25 25 26 26 26 26 26 24 22 22 21 19 18 16 11 5 9 17 15 14 14 13 13 20 24 11 11 23 10 5 12 16 9
19 19 18 19 20 21 22 23 24 25 24 24 26 27 27 27 27 27 27 27 26 24 23 22 21 20 17 30 4 10 14 20 18 18 13 15 11 9 16 26 12 7 14 8 11 22 14
21 22 21 21 22 24 24 25 25 27 28 28 29 29 29 29 29 28 28 28 26 24 23 21 20 19 21 29 7 12 22 21 23 20 14 8 10 21 11 21 11 20 28 24 25 22 26
22 22 22 24 25 26 27 27 28 30 30 31 32 32 31 31 30 29 29 28 25 23 22 20 18 15 19 10 12 19 25 23 25 18 10 10 14 21 23 16 29 29 35 9 23 28 23
23 23 23 24 25 27 28 29 30 32 32 33 33 33 32 32 31 30 29 27 23 20 20 16 10 11 33 14 20 22 29 30 26 20 14 11 16 24 19 30 28 22 42 39 27 9 12
27 27 27 27 27 28 29 31 32 33 34 35 35 34 33 32 31 29 27 24 20 19 17 13 18 16 34 29 25 27 33 26 28 20 18 18 18 22 24 30 20 18 35 16 18 22 15
33 33 33 32 33 33 32 32 34 35 35 36 36 34 32 31 29 27 22 15 13 14 31 32 19 41 14 15 26 32 35 28 24 26 29 20 20 30 32 44 19 37 3 20 11 5 19
32 33 35 37 37 37 37 37 37 37 36 37 36 34 31 29 26 22 14 11 11 12 20 36 42 30 13 22 29 38 39 32 30 27 24 9 28 13 15 15 22 18 22 19 14 14 27
33 33 35 36 37 38 38 38 38 39 37 37 37 34 31 27 22 17 13 18 10 15 19 37 50 52 39 29 36 46 47 45 34 33 30 20 16 7 8 18 31 31 21 15 11 20 26
37 39 39 39 37 38 39 40 40 39 40 38 37 35 30 20 7 9 13 14 10 11 13 27 39 36 54 38 40 42 49 49 24 35 24 23 34 10 22 31 34 23 3 7 13 22 17
38 39 40 42 41 39 39 39 40 40 39 38 36 34 26 23 14 6 4 6 8 7 12 30 32 14 43 55 33 51 48 53 39 28 26 24 35 19 31 34 21 12 6 18 12 21 27
42 44 43 41 42 42 40 39 39 40 39 38 35 33 27 19 19 20 12 10 6 15 21 20 22 28 39 51 53 46 50 55 42 35 29 25 32 30 34 31 18 21 16 22 27 23 24
42 44 46 46 44 42 42 42 41 39 39 38 35 33 30 23 9 10 13 15 15 20 16 20 27 35 42 37 50 30 48 47 36 36 36 37 31 23 22 19 28 26 29 24 25 23 21
44 43 44 47 47 46 43 42 44 43 39 38 34 33 30 27 21 17 16 20 22 17 33 10 7 29 41 44 49 45 44 42 50 43 28 27 34 41 35 32 29 36 36 28 14 19 14
45 45 47 48 48 47 46 44 44 44 42 37 32 18 16 17 31 25 29 25 29 30 10 5 15 23 36 43 37 46 48 47 49 49 42 27 39 25 50 27 41 36 33 32 31 30 25
49 47 46 47 49 48 47 47 45 43 38 39 27 12 23 22 25 29 23 36 35 5 9 17 29 25 30 41 38 49 43 44 46 51 45 35 32 34 27 17 31 35 33 23 24 32 35
48 50 49 49 50 49 48 47 47 43 35 30 13 13 18 19 25 33 25 37 40 14 14 19 20 11 24 25 41 39 47 36 39 36 40 41 35 23 34 23 33 26 33 34 36 26 25
47 49 50 51 52 51 47 47 47 47 36 19 13 15 13 27 28 38 28 41 16 26 19 25 13 22 19 23 19 41 38 38 36 29 32 40 28 32 33 29 38 41 36 41 30 37 24
44 46 48 49 51 51 50 45 44 44 44 30 13 17 10 28 17 27 39 32 18 23 32 22 28 22 6 18 16 26 37 26 24 21 24 25 35 34 32 31 27 21 30 32 33 29 34
45 45 47 47 50 50 49 46 42 40 36 23 12 10 19 31 41 31 27 35 32 30 35 30 25 26 20 23 21 12 28 13 9 25 3 17 29 30 29 31 10 40 36 37 36 28 29
45 45 45 46 47 49 49 48 42 37 31 15 13 6 11 10 27 31 33 21 34 28 25 23 28 33 32 30 30 28 22 26 18 19 17 27 32 35 42 41 10 22 20 20 25 32 33
44 43 45 45 45 47 48 48 44 38 22 9 15 12 18 34 22 23 22 25 29 25 19 22 29 30 28 36 33 28 29 28 29 24 30 34 34 30 28 26 27 25 31 27 30 27 30
44 44 44 45 44 45 46 46 45 40 27 9 20 16 17 20 21 21 23 32 25 25 15 24 19 11 23 20 29 35 36 36 23 33 32 34 29 27 27 34 40 35 22 30 32 31 27
40 42 43 44 44 44 44 43 42 39 35 15 20 18 19 20 15 19 21 20 24 24 25 10 11 17 18 16 22 32 36 41 33 25 24 33 31 22 24 28 40 25 4 6 19 30 33
38 40 41 43 43 43 43 42 39 36 32 21 20 13 17 17 24 18 21 20 27 24 22 26 26 18 12 20 21 29 29 37 42 38 34 31 21 24 29 31 31 32 19 27 28 29 19
41 42 40 39 40 41 41 40 39 36 32 25 14 11 16 19 1 16 19 21 21 23 26 36 27 18 20 19 22 31 26 28 37 36 27 26 31 24 26 33 37 29 31 25 18 18 27
42 42 42 41 37 38 40 39 38 37 33 30 10 15 12 29 37 14 15 17 13 19 18 7 11 17 23 18 23 24 28 32 32 38 26 26 31 29 29 31 34 25 22 16 18 16 28
45 46 45 42 41 37 38 38 36 36 35 30 16 18 11 22 48 39 34 30 23 20 18 10 13 22 15 20 21 18 19 15 16 21 21 26 27 24 30 32 40 22 0 8 17 21 18
46 48 48 47 44 40 37 37 36 35 35 33 10 16 18 24 31 37 41 39 36 34 24 16 17 12 16 10 13 15 12 9 5 18 20 19 19 14 17 13 13 9 13 7 11 16 9
Wind_Direction_500mb
22 20 15 9 4 359 352 344 335 330 326 325 320 317 315 314 312 310 307 305 303 302 301 303 307 313 317 265 266 274 210 188 183 193 224 221 245 240 248 272 212 254 58 152 139 119 29
9 6 3 358 354 348 345 340 336 331 326 320 316 315 315 314 310 308 304 300 298 296 295 297 301 305 298 264 283 278 188 186 187 190 208 233 275 311 292 262 241 74 261 225 185 118 166
1 356 353 348 343 340 336 335 331 326 323 320 317 315 315 313 310 306 302 298 295 291 288 289 293 300 273 261 226 208 187 191 190 198 220 247 273 272 330 239 255 267 233 191 177 156 151
357 353 348 343 339 336 335 333 329 323 319 318 316 315 314 310 308 305 301 297 294 289 284 281 282 289 267 204 208 201 190 195 193 207 242 259 259 273 247 274 252 231 238 271 139 181 126
348 345 341 339 336 333 331 329 328 323 319 315 313 313 311 308 307 303 300 296 291 284 278 270 282 249 263 230 203 199 190 186 187 206 228 266 268 261 243 235 216 200 114 234 146 248 150
339 337 335 332 328 326 325 326 325 323 321 316 315 314 311 308 305 303 300 296 285 276 259 252 239 253 232 222 193 185 183 200 193 205 220 243 240 244 216 236 229 250 211 126 146 169 237
339 335 331 328 327 324 322 321 322 322 319 317 316 314 312 307 304 303 303 300 266 234 214 227 227 220 148 167 175 183 186 191 198 206 224 196 248 225 225 129 259 269 237 94 69 110 230
340 336 333 330 325 323 323 321 319 318 317 317 315 314 312 308 303 296 286 239 328 335 283 235 239 236 211 194 191 193 187 202 201 214 200 186 240 244 335 316 254 208 224 133 140 183 236
343 338 334 331 327 324 322 319 318 315 313 313 313 313 313 311 305 289 243 251 266 316 261 254 225 223 213 208 219 189 191 204 202 226 177 222 235 34 193 254 248 204 233 148 178 164 241
344 342 339 333 327 326 324 321 318 313 313 312 311 312 315 314 309 269 264 223 279 284 272 206 201 225 211 205 225 207 199 202 212 222 197 208 242 179 219 259 244 225 184 271 239 246 229
346 343 340 336 331 326 326 324 321 316 313 310 309 309 311 304 268 234 210 225 282 236 265 133 166 183 194 199 198 209 198 210 219 202 230 201 233 167 239 241 245 71 205 238 265 271 272
347 345 344 342 336 330 329 328 324 318 315 309 307 305 300 303 266 220 265 254 241 232 246 159 165 196 200 201 230 183 198 216 221 236 205 246 270 202 219 231 273 316 254 230 237 249 267
348 347 346 343 342 339 333 331 328 324 317 309 304 297 285 256 176 225 224 219 225 243 103 182 185 187 203 190 211 187 192 201 214 217 219 212 211 233 238 226 232 272 252 234 219 215 236
348 347 349 347 343 341 339 335 331 329 324 309 306 294 273 248 226 227 209 223 245 245 240 82 261 184 205 200 206 184 202 206 213 219 216 210 215 212 205 216 240 216 242 262 257 268 286
350 348 347 348 347 344 341 338 334 331 329 313 314 306 252 251 209 196 213 223 217 249 340 273 199 240 204 214 199 204 212 210 207 222 227 215 230 225 209 192 216 246 255 272 297 301 284
353 350 348 348 348 346 344 341 338 335 333 322 322 276 241 203 189 187 223 240 241 248 321 248 258 203 220 207 201 206 207 218 216 208 230 243 259 191 173 216 235 231 272 236 234 259 278
353 352 351 349 349 348 348 346 342 337 340 330 320 240 168 194 180 206 221 232 236 218 238 264 265 277 264 218 209 221 215 215 218 226 212 233 249 218 175 195 226 202 238 251 276 276 268
350 351 352 351 350 349 350 350 348 343 347 343 270 235 166 167 195 218 224 236 272 241 213 251 251 280 292 285 249 219 221 227 186 233 230 223 241 233 241 211 227 244 241 218 239 235 256
348 350 350 352 352 352 351 354 352 350 350 354 274 268 192 185 225 228 222 246 250 234 241 230 232 245 272 258 241 254 246 231 158 192 242 230 226 247 235 240 209 234 249 264 272 263 254
352 350 351 353 355 354 355 355 355 350 348 338 275 235 179 210 246 285 245 216 233 225 259 255 257 264 256 252 243 257 242 123 192 216 344 281 241 227 243 242 269 214 215 241 247 252 253
354 353 353 352 354 357 358 358 358 354 349 338 237 281 13 195 223 235 259 255 227 218 207 233 237 242 246 244 249 213 240 202 210 191 219 231 243 254 258 268 174 275 237 231 246 269 272
354 356 355 355 353 354 358 1 3 1 13 27 316 342 340 280 293 280 231 241 250 236 218 219 226 265 222 237 254 249 225 237 195 183 226 213 231 251 264 261 263 252 261 251 266 272 259
351 353 355 356 356 354 354 0 5 8 24 350 342 299 282 283 252 240 242 235 241 253 240 242 289 265 261 252 283 270 299 294 243 202 204 231 232 239 240 246 249 237 250 265 264 256 262
345 348 350 351 353 354 352 354 2 9 11 359 330 318 275 265 252 261 255 294 264 243 248 182 224 250 262 302 280 265 265 263 270 273 244 216 246 263 259 250 249 254 222 323 301 296 295
339 341 344 346 348 350 351 349 352 360 4 2 341 328 308 283 283 286 277 251 262 260 248 256 258 265 281 263 247 240 231 232 235 234 243 256 247 232 253 254 257 262 232 229 255 265 282
338 337 338 339 342 344 346 347 345 348 356 360 330 309 294 294 330 343 298 278 269 246 226 225 238 252 267 249 220 235 226 225 216 223 226 243 259 255 256 254 256 278 302 35 7 277 262
347 341 338 334 336 338 341 342 342 342 346 350 302 316 295 284 274 296 272 305 267 272 282 263 195 248 229 248 241 225 230 240 220 216 188 217 244 234 241 254 264 285 41 21 280 320 332
350 351 346 338 330 331 333 333 336 338 339 343 299 287 281 287 283 276 272 268 270 248 266 37 259 221 255 234 239 241 250 223 228 257 217 209 220 228 251 264 262 41 147 277 23 333 336
343 342 342 341 335 327 325 324 327 330 332 333 328 305 296 264 264 287 273 252 246 255 286 280 317 310 360 279 242 257 265 236 245 251 199 244 284 321 321 353 123 358 350 341 294 283 258
Wind_Speed_850mb
17 17 18 19 20 19 17 18 19 20 21 23 25 26 25 25 26 26 26 26 26 24 22 22 21 19 18 16 11 5 9 17 15 14 14 13 13 20 24 11 11 23 10 5 12 16 9
19 19 18 19 20 21 22 23 24 25 24 24 26 27 27 27 27 27 27 27 26 24 23 22 21 20 17 30 4 10 14 20 18 18 13 15 11 9 16 26 12 7 14 8 11 22 14
21 22 21 21 22 24 24 25 25 27 28 28 29 29 29 29 29 28 28 28 26 24 23 21 20 19 21 29 7 12 22 21 23 20 14 8 10 21 11 21 11 20 28 24 25 22 26
22 22 22 24 25 26 27 27 28 30 30 31 32 32 31 31 30 29 29 28 25 23 22 20 18 15 19 10 12 19 25 23 25 18 10 10 14 21 23 16 29 29 35 9 23 28 23
23 23 23 24 25 27 28 29 30 32 32 33 33 33 32 32 31 30 29 27 23 20 20 16 10 11 33 14 20 22 29 30 26 20 14 11 16 24 19 30 28 22 42 39 27 9 12
27 27 27 27 27 28 29 31 32 33 34 35 35 34 33 32 31 29 27 24 20 19 17 13 18 16 34 29 25 27 33 26 28 20 18 18 18 22 24 30 20 18 35 16 18 22 15
33 33 33 32 33 33 32 32 34 35 35 36 36 34 32 31 29 27 22 15 13 14 31 32 19 41 14 15 26 32 35 28 24 26 29 20 20 30 32 44 19 37 3 20 11 5 19
32 33 35 37 37 37 37 37 37 37 36 37 36 34 31 29 26 22 14 11 11 12 20 36 42 30 13 22 29 38 39 32 30 27 24 9 28 13 15 15 22 18 22 19 14 14 27
33 33 35 36 37 38 38 38 38 39 37 37 37 34 31 27 22 17 13 18 10 15 19 37 50 52 39 29 36 46 47 45 34 33 30 20 16 7 8 18 31 31 21 15 11 20 26
37 39 39 39 37 38 39 40 40 39 40 38 37 35 30 20 7 9 13 14 10 11 13 27 39 36 54 38 40 42 49 49 24 35 24 23 34 10 22 31 34 23 3 7 13 22 17
38 39 40 42 41 39 39 39 40 40 39 38 36 34 26 23 14 6 4 6 8 7 12 30 32 14 43 55 33 51 48 53 39 28 26 24 35 19 31 34 21 12 6 18 12 21 27
42 44 43 41 42 42 40 39 39 40 39 38 35 33 27 19 19 20 12 10 6 15 21 20 22 28 39 51 53 46 50 55 42 35 29 25 32 30 34 31 18 21 16 22 27 23 24
42 44 46 46 44 42 42 42 41 39 39 38 35 33 30 23 9 10 13 15 15 20 16 20 27 35 42 37 50 30 48 47 36 36 36 37 31 23 22 19 28 26 29 24 25 23 21
44 43 44 47 47 46 43 42 44 43 39 38 34 33 30 27 21 17 16 20 22 17 33 10 7 29 41 44 49 45 44 42 50 43 28 27 34 41 35 32 29 36 36 28 14 19 14
45 45 47 48 48 47 46 44 44 44 42 37 32 18 16 17 31 25 29 25 29 30 10 5 15 23 36 43 37 46 48 47 49 49 42 27 39 25 50 27 41 36 33 32 31 30 25
49 47 46 47 49 48 47 47 45 43 38 39 27 12 23 22 25 29 23 36 35 5 9 17 29 25 30 41 38 49 43 44 46 51 45 35 32 34 27 17 31 35 33 23 24 32 35
48 50 49 49 50 49 48 47 47 43 35 30 13 13 18 19 25 33 25 37 40 14 14 19 20 11 24 25 41 39 47 36 39 36 40 41 35 23 34 23 33 26 33 34 36 26 25
47 49 50 51 52 51 47 47 47 47 36 19 13 15 13 27 28 38 28 41 16 26 19 25 13 22 19 23 19 41 38 38 36 29 32 40 28 32 33 29 38 41 36 41 30 37 24
44 46 48 49 51 51 50 45 44 44 44 30 13 17 10 28 17 27 39 32 18 23 32 22 28 22 6 18 16 26 37 26 24 21 24 25 35 34 32 31 27 21 30 32 33 29 34
45 45 47 47 50 50 49 46 42 40 36 23 12 10 19 31 41 31 27 35 32 30 35 30 25 26 20 23 21 12 28 13 9 25 3 17 29 30 29 31 10 40 36 37 36 28 29
45 45 45 46 47 49 49 48 42 37 31 15 13 6 11 10 27 31 33 21 34 28 25 23 28 33 32 30 30 28 22 26 18 19 17 27 32 35 42 41 10 22 20 20 25 32 33
44 43 45 45 45 47 48 48 44 38 22 9 15 12 18 34 22 23 22 25 29 25 19 22 29 30 28 36 33 28 29 28 29 24 30 34 34 30 28 26 27 25 31 27 30 27 30
44 44 44 45 44 45 46 46 45 40 27 9 20 16 17 20 21 21 23 32 25 25 15 24 19 11 23 20 29 35 36 36 23 33 32 34 29 27 27 34 40 35 22 30 32 31 27
40 42 43 44 44 44 44 43 42 39 35 15 20 18 19 20 15 19 21 20 24 24 25 10 11 17 18 16 22 32 36 41 33 25 24 33 31 22 24 28 40 25 4 6 19 30 33
38 40 41 43 43 43 43 42 39 36 32 21 20 13 17 17 24 18 21 20 27 24 22 26 26 18 12 20 21 29 29 37 42 38 34 31 21 24 29 31 31 32 19 27 28 29 19
41 42 40 39 40 41 41 40 39 36 32 25 14 11 16 19 1 16 19 21 21 23 26 36 27 18 20 19 22 31 26 28 37 36 27 26 31 24 26 33 37 29 31 25 18 18 27
42 42 42 41 37 38 40 39 38 37 33 30 10 15 12 29 37 14 15 17 13 19 18 7 11 17 23 18 23 24 28 32 32 38 26 26 31 29 29 31 34 25 22 16 18 16 28
45 46 45 42 41 37 38 38 36 36 35 30 16 18 11 22 48 39 34 30 23 20 18 10 13 22 15 20 21 18 19 15 16 21 21 26 27 24 30 32 40 22 0 8 17 21 18
46 48 48 47 44 40 37 37 36 35 35 33 10 16 18 24 31 37 41 39 36 34 24 16 17 12 16 10 13 15 12 9 5 18 20 19 19 14 17 13 13 9 13 7 11 16 9
Wind_Direction_850mb
22 20 15 9 4 359 352 344 335 330 326 325 320 317 315 314 312 310 307 305 303 302 301 303 307 313 317 265 266 274 210 188 183 193 224 221 245 240 248 272 212 254 58 152 139 119 29
9 6 3 358 354 348 345 340 336 331 326 320 316 315 315 314 310 308 304 300 298 296 295 297 301 305 298 264 283 278 188 186 187 190 208 233 275 311 292 262 241 74 261 225 185 118 166
1 356 353 348 343 340 336 335 331 326 323 320 317 315 315 313 310 306 302 298 295 291 288 289 293 300 273 261 226 208 187 191 190 198 220 247 273 272 330 239 255 267 233 191 177 156 151
357 353 348 343 339 336 335 333 329 323 319 318 316 315 314 310 308 305 301 297 294 289 284 281 282 289 267 204 208 201 190 195 193 207 242 259 259 273 247 274 252 231 238 271 139 181 126
348 345 341 339 336 333 331 329 328 323 319 315 313 313 311 308 307 303 300 296 291 284 278 270 282 249 263 230 203 199 190 186 187 206 228 266 268 261 243 235 216 200 114 234 146 248 150
339 337 335 332 328 326 325 326 325 323 321 316 315 314 311 308 305 303 300 296 285 276 259 252 239 253 232 222 193 185 183 200 193 205 220 243 240 244 216 236 229 250 211 126 146 169 237
339 335 331 328 327 324 322 321 322 322 319 317 316 314 312 307 304 303 303 300 266 234 214 227 227 220 148 167 175 183 186 191 198 206 224 196 248 225 225 129 259 269 237 94 69 110 230
340 336 333 330 325 323 323 321 319 318 317 317 315 314 312 308 303 296 286 239 328 335 283 235 239 236 211 194 191 193 187 202 201 214 200 186 240 244 335 316 254 208 224 133 140 183 236
343 338 334 331 327 324 322 319 318 315 313 313 313 313 313 311 305 289 243 251 266 316 261 254 225 223 213 208 219 189 191 204 202 226 177 222 235 34 193 254 248 204 233 148 178 164 241
344 342 339 333 327 326 324 321 318 313 313 312 311 312 315 314 309 269 264 223 279 284 272 206 201 225 211 205 225 207 199 202 212 222 197 208 242 179 219 259 244 225 184 271 239 246 229
346 343 340 336 331 326 326 324 321 316 313 310 309 309 311 304 268 234 210 225 282 236 265 133 166 183 194 199 198 209 198 210 219 202 230 201 233 167 239 241 245 71 205 238 265 271 272
347 345 344 342 336 330 329 328 324 318 315 309 307 305 300 303 266 220 265 254 241 232 246 159 165 196 200 201 230 183 198 216 221 236 205 246 270 202 219 231 273 316 254 230 237 249 267
348 347 346 343 342 339 333 331 328 324 317 309 304 297 285 256 176 225 224 219 225 243 103 182 185 187 203 190 211 187 192 201 214 217 219 212 211 233 238 226 232 272 252 234 219 215 236
348 347 349 347 343 341 339 335 331 329 324 309 306 294 273 248 226 227 209 223 245 245 240 82 261 184 205 200 206 184 202 206 213 219 216 210 215 212 205 216 240 216 242 262 257 268 286
350 348 347 348 347 344 341 338 334 331 329 313 314 306 252 251 209 196 213 223 217 249 340 273 199 240 204 214 199 204 212 210 207 222 227 215 230 225 209 192 216 246 255 272 297 301 284
353 350 348 348 348 346 344 341 338 335 333 322 322 276 241 203 189 187 223 240 241 248 321 248 258 203 220 207 201 206 207 218 216 208 230 243 259 191 173 216 235 231 272 236 234 259 278
353 352 351 349 349 348 348 346 342 337 340 330 320 240 168 194 180 206 221 232 236 218 238 264 265 277 264 218 209 221 215 215 218 226 212 233 249 218 175 195 226 202 238 251 276 276 268
350 351 352 351 350 349 350 350 348 343 347 343 270 235 166 167 195 218 224 236 272 241 213 251 251 280 292 285 249 219 221 227 186 233 230 223 241 233 241 211 227 244 241 218 239 235 256
348 350 350 352 352 352 351 354 352 350 350 354 274 268 192 185 225 228 222 246 250 234 241 230 232 245 272 258 241 254 246 231 158 192 242 230 226 247 235 240 209 234 249 264 272 263 254
352 350 351 353 355 354 355 355 355 350 348 338 275 235 179 210 246 285 245 216 233 225 259 255 257 264 256 252 243 257 242 123 192 216 344 281 241 227 243 242 269 214 215 241 247 252 253
354 353 353 352 354 357 358 358 358 354 349 338 237 281 13 195 223 235 259 255 227 218 207 233 237 242 246 244 249 213 240 202 210 191 219 231 243 254 258 268 174 275 237 231 246 269 272
354 356 355 355 353 354 358 1 3 1 13 27 316 342 340 280 293 280 231 241 250 236 218 219 226 265 222 237 254 249 225 237 195 183 226 213 231 251 264 261 263 252 261 251 266 272 259
351 353 355 356 356 354 354 0 5 8 24 350 342 299 282 283 252 240 242 235 241 253 240 242 289 265 261 252 283 270 299 294 243 202 204 231 232 239 240 246 249 237 250 265 264 256 262
345 348 350 351 353 354 352 354 2 9 11 359 330 318 275 265 252 261 255 294 264 243 248 182 224 250 262 302 280 265 265 263 270 273 244 216 246 263 259 250 249 254 222 323 301 296 295
339 341 344 346 348 350 351 349 352 360 4 2 341 328 308 283 283 286 277 251 262 260 248 256 258 265 281 263 247 240 231 232 235 234 243 256 247 232 253 254 257 262 232 229 255 265 282
338 337 338 339 342 344 346 347 345 348 356 360 330 309 294 294 330 343 298 278 269 246 226 225 238 252 267 249 220 235 226 225 216 223 226 243 259 255 256 254 256 278 302 35 7 277 262
347 341 338 334 336 338 341 342 342 342 346 350 302 316 295 284 274 296 272 305 267 272 282 263 195 248 229 248 241 225 230 240 220 216 188 217 244 234 241 254 264 285 41 21 280 320 332
350 351 346 338 330 331 333 333 336 338 339 343 299 287 281 287 283 276 272 268 270 248 266 37 259 221 255 234 239 241 250 223 228 257 217 209 220 228 251 264 262 41 147 277 23 333 336
343 342 342 341 335 327 325 324 327 330 332 333 328 305 296 264 264 287 273 252 246 255 286 280 317 310 360 279 242 257 265 236 245 251 199 244 284 321 321 353 123 358 350 341 294 283 258